SL-8 DEB *

Satellite information

Favourite Embed

Satellite Type and Status

DEBRISIN ORBIT

Key statistics

Satellite SL-8 DEB * at a glance.

Uptime

17343

Days in orbit

Revolutions

≈ 14.7

Per day

Orbit

LEO

Low Earth Orbit

Inclination

74.1

Latest

Satellite identification and parameters

Extended collection of information and parameters for SL-8 DEB *.

Object identification

Identified? True

Debris? True

Object name: SL-8 DEB *

International designator: 1978-063C

Object number (NORAD): 13497

Object ID (CCSDS): 13497

Country: COMMONWEALTH OF INDEPENDENT STATES (CIS)

Current information (Y/N): Y

RCS size: SMALL

Orbital parameters

Period: 98.188 minutes

Inclination: 74.0527 deg

SMA: 7050.184 km

Apoapsis: 680.835 km

Periapsis: 663.263 km

RAAN: 349.9744 deg

Eccentricy: 0.00124619

Argument of periapsis: 239.6612 deg

Mean anomaly: 270.8955 deg

Mean motion: 14.66567603 rev/day

Mean motion (dot): 0.00005 rev/day2

B* drag term: 0.00090480699 1/REarth

Two-line elements (TLE)

Creation date: Dec. 14, 2025, 3:07 a.m.

Reference frame: TEME

Reference center: EARTH

Epoch: Dec. 13, 2025, 10:53 a.m. UTC

TLE line 0: 0 SL-8 DEB *

TLE line 1: 1 13497U 78063C 25347.45355330 .00005000 00000-0 90481-3 0 9997

TLE line 2: 2 13497 74.0527 349.9744 0012462 239.6612 270.8955 14.66567603302505

Live tracking on map

Real-time ground track for satellite SL-8 DEB *.

In-orbit conjunctions

A list of the most updated potential collisions computed for object SL-8 DEB *.

Target Orbit TCA Probability of collision Miss distance Type
FENGYUN 1C DEB SSO 2024-11-12 20:25:05 0.001492747 115.0 (m) DEBRIS
THOR BURNER 2 R/B SSO 2024-10-16 20:57:45 0.000435105 649.0 (m) ROCKET BODY

Associated space launch

Military communications satellite

SL-8 DEB * was lifted into orbit during the mission ‘Kosmos-3M | Strela-2M 18’, on board a Kosmos-3M space rocket.

The launch took place on June 21, 1978, 9:27 a.m. from 132/1 (132L).

For more information about the launch, click the button.

Launch to space Kosmos-3M | Strela-2M 18
Kosmos-3M | Strela-2M 18

Agency: N/A

Status: Launch Successful

Launch date: June 21, 1978, 9:27 a.m. UTC

Rocket: Kosmos-3M

Launch pad: 132/1 (132L)

Location: Plesetsk Cosmodrome, Russian Federation

...

Latest news about this satellite

There are no fresh news available about this satellite. Check back as we update our databases every day.


Newsletter sign-up

Weekly statistics, charts and insights to help you stay on top of the space industry.